[[{"header":{"parameterUnit":"m.s-1","parameterCategory":1,"la1":30.2992,"la2":30.254,"lo1":-89.0895,"lo2":-89.0443,"dy":0.0025,"dx":0.0025,"nx":19,"ny":19,"refTime":"2026-03-13T09:00:00:Z","depth":0,"parameterNumber":2,"parameterNumberName":"U-component_of_WINDS"},"data":[0,0,0,-1.1966,-1.1968,-1.2105,-1.2105,-1.2261,-1.2262,0,0,0,0,0,0,0,0,0,0,0,-1.1912,-1.1912,-1.1965,-1.1968,-1.2105,-1.2105,-1.2261,-1.2262,0,0,0,0,0,0,0,0,0,0,0,-1.1911,-1.1912,-1.1913,-1.1969,-1.2104,-1.2105,-1.2261,-1.2165,0,0,0,0,0,0,0,0,0,0,-1.2036,-1.1972,-1.1912,-1.1913,-1.197,-1.2104,-1.2106,-1.2161,-1.2171,-1.219,0,-1.2202,0,-1.2234,-1.2271,-1.2272,0,0,0,-1.1979,-1.1963,-1.2012,-1.1913,-1.1971,-1.2104,-1.2046,-1.2167,-1.2178,-1.2204,-1.2205,-1.2211,-1.2237,-1.2272,-1.2273,-1.2343,-1.2343,0,0,-1.1972,-1.1929,-1.2004,-1.2019,-1.1994,-1.2042,-1.205,-1.2174,-1.2173,-1.2205,-1.2215,-1.2239,-1.2273,-1.2274,-1.2343,-1.2343,0,0,0,-1.1943,-1.1924,-1.197,-1.2012,-1.2038,-1.2045,-1.2055,-1.2168,-1.2186,-1.2217,-1.2241,-1.2274,-1.2275,-1.2343,-1.2343,-1.229,0,0,0,-1.1939,-1.1907,-1.1966,-1.1942,-1.2035,-1.2104,-1.2046,-1.2177,-1.2193,-1.224,-1.2274,-1.2277,-1.2344,-1.2343,-1.2292,-1.2272,0,0,0,-1.1907,-1.1903,-1.1918,-1.1939,-1.1996,-1.2103,-1.2129,-1.2182,-1.2207,-1.2272,-1.2277,-1.2344,-1.2343,-1.2294,-1.2275,-1.2277,0,0,0,-1.1862,-1.1872,-1.1916,-1.1937,-1.1994,-1.2069,-1.2128,-1.2187,-1.2236,-1.2275,-1.2344,-1.2343,-1.2295,-1.2277,-1.2278,-1.2268,-1.2261,0,0,-1.185,-1.1869,-1.1884,-1.1928,-1.1983,-1.2051,-1.21,-1.2187,-1.2234,-1.2305,-1.2307,-1.2292,-1.2276,-1.2277,-1.2236,-1.2229,0,0,0,-1.1866,-1.1876,-1.19,-1.1943,-1.2008,-1.2062,-1.2146,-1.2178,-1.2239,-1.2261,-1.2295,-1.2287,-1.2289,-1.2287,-1.2281,-1.2285,-1.234,-1.2341,-1.2341,-1.1788,-1.1844,-1.1873,-1.1945,-1.1987,-1.2073,-1.2112,-1.2171,-1.2218,-1.2225,-1.2246,-1.2213,-1.2209,-1.2205,-1.2208,-1.2247,-1.2247,-1.2247,-1.2247,-1.1774,-1.1796,-1.1857,-1.1906,-1.1966,-1.201,-1.2092,-1.2124,-1.2174,-1.2203,-1.2208,-1.2233,-1.2196,-1.2202,-1.2243,-1.2244,-1.2244,-1.2245,-1.2245,-1.1728,-1.1748,-1.1785,-1.1853,-1.1899,-1.1975,-1.2018,-1.2073,-1.2126,-1.2131,-1.2158,-1.2159,-1.2166,-1.214,-1.214,-1.214,-1.214,-1.214,-1.214,-1.1664,-1.1708,-1.1736,-1.1804,-1.1839,-1.1891,-1.1977,-1.2014,-1.2068,-1.2105,-1.2106,-1.2151,-1.2182,-1.2187,-1.2138,-1.2139,-1.2139,-1.2139,-1.2139,-1.1625,-1.1642,-1.1686,-1.172,-1.1805,-1.1846,-1.1916,-1.1985,-1.2024,-1.2043,-1.2088,-1.2102,-1.2126,-1.2131,-1.2135,-1.2076,-1.2076,-1.2076,-1.2076,-1.1585,-1.1601,-1.1657,-1.1708,-1.1765,-1.1831,-1.188,-1.1947,-1.202,-1.2047,-1.2064,-1.2076,-1.2078,-1.21,-1.2106,-1.2111,-1.2047,-1.2047,-1.2047,-1.1563,-1.1588,-1.1617,-1.1685,-1.1756,-1.1815,-1.1862,-1.1919,-1.2006,-1.2047,-1.2069,-1.2071,-1.209,-1.2094,-1.2133,-1.214,-1.2151,0,0]},{"header":{"parameterUnit":"m.s-1","parameterCategory":1,"la1":30.2992,"la2":30.254,"lo1":-89.0895,"lo2":-89.0443,"dy":0.0025,"dx":0.0025,"nx":19,"ny":19,"refTime":"2026-03-13T09:00:00:Z","depth":0,"parameterNumber":3,"parameterNumberName":"V-component_of_WINDS"},"data":[0,0,0,5.0819,5.0821,5.0952,5.0952,5.1106,5.1107,0,0,0,0,0,0,0,0,0,0,0,5.0777,5.0778,5.0818,5.0822,5.0952,5.0952,5.1106,5.1107,0,0,0,0,0,0,0,0,0,0,0,5.0777,5.0778,5.0779,5.0822,5.0951,5.0952,5.1106,5.1011,0,0,0,0,0,0,0,0,0,0,5.0886,5.0846,5.0778,5.0779,5.0823,5.0951,5.0952,5.1006,5.1017,5.1043,0,5.1071,0,5.1092,5.1117,5.1118,0,0,0,5.0822,5.0837,5.0876,5.0779,5.0824,5.0951,5.0893,5.1012,5.1024,5.1057,5.1073,5.1079,5.1094,5.1118,5.1119,5.1281,5.1281,0,0,5.0815,5.0798,5.0868,5.0883,5.0868,5.0889,5.0897,5.1019,5.1033,5.1073,5.1082,5.1097,5.1119,5.1121,5.128,5.1281,0,0,0,5.0794,5.0793,5.0828,5.0877,5.0901,5.0893,5.0902,5.1028,5.1041,5.1084,5.1099,5.112,5.1122,5.1279,5.128,5.1298,0,0,0,5.079,5.078,5.0825,5.0815,5.0899,5.0967,5.0908,5.1033,5.1047,5.1098,5.112,5.1123,5.1278,5.128,5.1296,5.1308,0,0,0,5.0769,5.0778,5.0796,5.0814,5.087,5.0966,5.0986,5.1036,5.1056,5.1118,5.1124,5.1278,5.1279,5.1294,5.1305,5.1344,0,0,0,5.0741,5.0809,5.0796,5.0877,5.0869,5.0978,5.0986,5.1067,5.1122,5.1121,5.1279,5.128,5.1294,5.1303,5.1342,5.1371,5.1383,0,0,5.0816,5.0817,5.0866,5.0859,5.0966,5.096,5.1068,5.1134,5.1154,5.1236,5.124,5.1297,5.1305,5.1343,5.1461,5.147,0,0,0,5.0884,5.0918,5.0951,5.1005,5.106,5.1106,5.1158,5.1182,5.1254,5.1194,5.1324,5.1329,5.1352,5.1366,5.1374,5.1394,5.1287,5.1287,5.1287,5.0961,5.0987,5.1069,5.1111,5.1163,5.1217,5.126,5.1301,5.1309,5.134,5.1363,5.1432,5.1448,5.1454,5.1475,5.1383,5.1384,5.1384,5.1384,5.107,5.1122,5.1136,5.1219,5.1245,5.1314,5.1368,5.1372,5.1437,5.1416,5.1438,5.1409,5.1464,5.1483,5.1385,5.1385,5.1385,5.1385,5.1385,5.1121,5.115,5.1182,5.1263,5.1322,5.1361,5.1425,5.1446,5.1465,5.1487,5.1512,5.1511,5.1511,5.1498,5.1499,5.1499,5.1499,5.1499,5.1499,5.1159,5.1195,5.1247,5.1313,5.1351,5.1402,5.1458,5.1494,5.1539,5.1548,5.1548,5.1551,5.1467,5.1443,5.1503,5.1502,5.1502,5.1501,5.1501,5.1254,5.1237,5.1318,5.1356,5.1434,5.149,5.1518,5.1589,5.1622,5.1652,5.1652,5.1588,5.1588,5.1582,5.1562,5.1649,5.1649,5.1649,5.1649,5.1294,5.1299,5.1386,5.1445,5.1506,5.154,5.1626,5.167,5.1712,5.1733,5.1724,5.1701,5.1694,5.1698,5.169,5.1671,5.1784,5.1784,5.1784,5.1352,5.1364,5.1435,5.148,5.1543,5.1595,5.1677,5.174,5.1784,5.179,5.1749,5.1743,5.1706,5.1693,5.1694,5.168,5.1647,0,0]}]]